EUTELSAT 9B

Last updated on Wed Sep 09 2026 00:03:01 GMT+0000 (Coordinated Universal Time)

1 41310U 16005A 26251.30433256 .00000041 00000+0 00000+0 0 9996 2 41310 0.0413 68.1702 0002386 140.3426 257.4041 1.00271073 38951
UTC large
Height (km)
Speed (km/s)
/
Latitude / Longitude
Inclination (degrees)
Orbital Period (minutes)
Azimuth
Elevation
Range (km)
Doppler Factor

Next 0 passes for location: London (51.5072 / 0.1276)

No passes found over London.
EUTELSAT 9B